Tracking 26911 objects as of 8-Feb-2023
HD Live streaming from Space Station
objects crossing your sky now

YZ-1 R/B

Track YZ-1 R/B now!


NORAD ID: 43210
Int'l Code: 2018-018D
Perigee: 22,179.6 km
Apogee: 22,372.1 km
Inclination: 55.5 °
Period: 804.2 minutes
Semi major axis: 28646 km
RCS: Unknown
Launch date: February 12, 2018
Source: People's Republic of China (PRC)
Launch site: Xichang Space Center, China (XSC)

Note: This is a ROCKET BODY
Your satellite tracking list
Your tracking list is empty




NASA's NSSDC Master Catalog

Two Line Element Set (TLE):
1 43210U 18018D   23037.97780966 -.00000006  00000-0  00000-0 0  9992
2 43210  55.4543 108.6404 0033585  92.7413 267.7122  1.79055585 32604
Source of the keplerian elements: AFSPC